Home > Weather > Castrop-Rauxel > Past weeks

Flag for Germany Past Weather in Castrop-Rauxel, North Rhine-Westphalia, Germany — Yesterday and Last 2 Weeks

Now
59 °F

Drizzle. Fog.


Feels Like: 57 °F
Forecast: 56 / 71 °F
Wind: 9 mph from North

Location: Dortmund / Wickede

Current Time: May 30, 2016 at 10:47:45 AM

Latest Report: May 30, 2016 at 9:50 AM


Visibility: 0 mi

Pressure: 29.62 "Hg

Humidity: 94%

Dew Point: 57 °F

Location of Castrop-RauxelLocation

Past Weather in Castrop-Rauxel — Graph

°F

Castrop-Rauxel Temperature Yesterday

Maximum temperature yesterday: 66 °F (at 3:20 PM)
Minimum temperature yesterday: 59 °F (at 5:20 AM)
Average temperature yesterday: 63 °F

High & Low Weather Summary for the Past Weeks

 TemperatureHumidityPressure
High73 °F (May 21, 5:50 PM)94% (May 23, 6:50 PM)30.12 "Hg (May 23, 6:50 PM)
Low41 °F (May 15, 11:20 AM)37% (May 18, 1:50 PM)29.62 "Hg (May 30, 6:50 AM)
Average58 °F67%29.94 "Hg
* Reported May 15 9:20 AM — May 30 9:20 AM, Castrop-Rauxel, Weather by CustomWeather, © 2016

Note: Actual official high and low records may vary slightly from our data, if they occured in-between our weather recording intervals... More about our weather records

Advertising

Castrop-Rauxel Weather History for the Previous 24 Hours

Scroll right to see more
 ConditionsComfort  
Time TempWeatherWind HumidityBarometerVisibility
9:20 AM
Mon, May 30
59 °FDrizzle. Fog.12 mph88%29.62 "Hg0 mi
8:50 AM59 °FDrizzle. Fog.9 mph88%29.62 "Hg0 mi
7:50 AM59 °FLight rain. Fog.9 mph94%29.65 "Hg1 mi
6:50 AM59 °FLight rain. Fog.5 mph94%29.62 "Hg2 mi
6:20 AM59 °FLight rain. Fog.10 mph94%29.65 "Hg2 mi
5:50 AM59 °FThunderstorms. Fog.5 mph94%29.65 "Hg1 mi
5:20 AM59 °FThundershowers. Low clouds.5 mph94%29.68 "Hg1 mi
9:50 PM
Sun, May 29
61 °FScattered clouds.6 mph83%29.74 "Hg6 mi
9:20 PM61 °FPartly sunny.8 mph83%29.74 "Hg6 mi
8:50 PM63 °FPartly sunny.7 mph77%29.74 "HgN/A
8:20 PM63 °FPartly sunny.8 mph77%29.74 "Hg6 mi
7:50 PM63 °FPartly sunny.7 mph77%29.71 "Hg6 mi
7:20 PM63 °FBroken clouds.8 mph77%29.71 "Hg6 mi
6:50 PM64 °FBroken clouds.9 mph78%29.71 "HgN/A
6:20 PM64 °FPartly sunny.8 mph78%29.71 "HgN/A
5:50 PM64 °FPartly sunny.8 mph78%29.71 "HgN/A
5:20 PM64 °FPartly sunny.10 mph73%29.71 "HgN/A
4:50 PM66 °FPartly sunny.10 mph73%29.71 "HgN/A
4:20 PM66 °FPartly sunny.9 mph73%29.74 "HgN/A
3:50 PM64 °FPartly sunny.9 mph78%29.74 "HgN/A
3:20 PM66 °FPartly sunny.9 mph73%29.74 "HgN/A
2:50 PM64 °FPartly sunny.9 mph78%29.74 "HgN/A
2:20 PM63 °FPartly sunny.9 mph77%29.74 "HgN/A
1:50 PM64 °FPartly sunny.10 mph73%29.74 "HgN/A
1:20 PM63 °FPartly sunny.8 mph77%29.74 "HgN/A
12:50 PM63 °FPartly sunny.10 mph77%29.74 "HgN/A
12:20 PM63 °FScattered clouds.12 mph77%29.77 "HgN/A
11:50 AM64 °FScattered clouds.9 mph73%29.74 "HgN/A
11:20 AM64 °FPassing clouds.8 mph78%29.74 "HgN/A
10:50 AM63 °FPassing clouds.8 mph77%29.74 "HgN/A
10:20 AM64 °FPassing clouds.7 mph78%29.77 "HgN/A
Weather by CustomWeather, © 2016

See weather overviewHow to use our weather pages